| time (UTC) | temp F | wind direction | speed MPH | gust MPH | rain 1hr in | rain 24hr in | rain mn in | humidity % | barometer mb |
| 20260901190005 | 96 | 119 | 2.0 | 6.0 | 0.00 | 0.00 | 0.00 | 46 | 999.2 |
| 20260901185505 | 96 | 167 | 3.0 | 6.0 | 0.00 | 0.00 | 0.00 | 47 | 999.1 |
| 20260901184504 | 96 | 81 | 1.0 | 3.0 | 0.00 | 0.00 | 0.00 | 46 | 999.1 |
| 20260901184005 | 96 | 168 | 2.0 | 6.0 | 0.00 | 0.00 | 0.00 | 49 | 999.4 |
| 20260901183504 | 97 | 105 | 3.0 | 3.0 | 0.00 | 0.00 | 0.00 | 47 | 999.4 |
| 20260901183005 | 99 | 146 | 2.0 | 3.0 | 0.00 | 0.00 | 0.00 | 46 | 999.5 |
| 20260901182505 | 98 | 118 | 2.0 | 5.0 | 0.00 | 0.00 | 0.00 | 47 | 999.4 |
| 20260901180505 | 96 | 155 | 2.0 | 5.0 | 0.00 | 0.00 | 0.00 | 48 | 999.8 |
| 20260901180005 | 95 | 77 | 1.0 | 6.0 | 0.00 | 0.00 | 0.00 | 49 | 999.8 |
| 20260901175505 | 96 | 85 | 3.0 | 5.0 | 0.00 | 0.00 | 0.00 | 49 | 999.9 |
| 20260901175004 | 96 | 94 | 1.0 | 2.0 | 0.00 | 0.00 | 0.00 | 51 | 1000.2 |
| 20260901174505 | 96 | 131 | 1.0 | 3.0 | 0.00 | 0.00 | 0.00 | 49 | 1000.3 |
| 20260901174007 | 94 | 199 | 2.0 | 3.0 | 0.00 | 0.00 | 0.00 | 50 | 1000.2 |
| 20260901173005 | 95 | 162 | 3.0 | 5.0 | 0.00 | 0.00 | 0.00 | 51 | 1000.5 |
| 20260901172504 | 95 | 160 | 2.0 | 6.0 | 0.00 | 0.00 | 0.00 | 51 | 1000.4 |
| 20260901172005 | 94 | 178 | 3.0 | 5.0 | 0.00 | 0.00 | 0.00 | 52 | 1000.3 |
| 20260901171505 | 94 | 80 | 1.0 | 3.0 | 0.00 | 0.00 | 0.00 | 52 | 1000.4 |
| 20260901170505 | 94 | 153 | 0.0 | 3.0 | 0.00 | 0.00 | 0.00 | 53 | 1000.6 |
| 20260901170005 | 94 | 109 | 1.0 | 2.0 | 0.00 | 0.00 | 0.00 | 53 | 1000.6 |
| 20260901165004 | 94 | 143 | 2.0 | 3.0 | 0.00 | 0.00 | 0.00 | 53 | 1000.7 |
| 20260901164505 | 94 | 104 | 1.0 | 3.0 | 0.00 | 0.00 | 0.00 | 54 | 1000.8 |
| 20260901163505 | 93 | 91 | 1.0 | 2.0 | 0.00 | 0.00 | 0.00 | 55 | 1000.8 |
| 20260901163005 | 93 | 106 | 2.0 | 6.0 | 0.00 | 0.00 | 0.00 | 56 | 1001.1 |
| 20260901162505 | 92 | 83 | 1.0 | 2.0 | 0.00 | 0.00 | 0.00 | 58 | 1001.0 |
| 20260901162004 | 92 | 88 | 1.0 | 3.0 | 0.00 | 0.00 | 0.00 | 56 | 1001.0 |
| 20260901161505 | 93 | 135 | 0.0 | 2.0 | 0.00 | 0.00 | 0.00 | 57 | 1000.9 |
| 20260901160505 | 93 | 170 | 2.0 | 2.0 | 0.00 | 0.00 | 0.00 | 56 | 1001.1 |
| 20260901160005 | 92 | 102 | 1.0 | 1.0 | 0.00 | 0.00 | 0.00 | 56 | 1001.0 |
| 20260901155505 | 91 | 112 | 1.0 | 2.0 | 0.00 | 0.00 | 0.00 | 60 | 1001.2 |
| 20260901155005 | 91 | 185 | 1.0 | 2.0 | 0.00 | 0.00 | 0.00 | 61 | 1001.1 |
| 20260901154505 | 90 | 87 | 1.0 | 2.0 | 0.00 | 0.00 | 0.00 | 62 | 1001.2 |
| 20260901154005 | 90 | 170 | 2.0 | 2.0 | 0.00 | 0.00 | 0.00 | 63 | 1001.0 |
| 20260901153004 | 90 | 100 | 1.0 | 2.0 | 0.00 | 0.00 | 0.00 | 63 | 1000.9 |
| 20260901152505 | 89 | 96 | 1.0 | 2.0 | 0.00 | 0.00 | 0.00 | 65 | 1000.8 |
| 20260901152004 | 89 | 68 | 1.0 | 2.0 | 0.00 | 0.00 | 0.00 | 65 | 1001.0 |
| 20260901151505 | 88 | 103 | 1.0 | 2.0 | 0.00 | 0.00 | 0.00 | 68 | 1001.0 |
| 20260901151004 | 88 | 198 | 1.0 | 2.0 | 0.00 | 0.00 | 0.00 | 68 | 1001.1 |
| 20260901150505 | 86 | 76 | 1.0 | 3.0 | 0.00 | 0.00 | 0.00 | 71 | 1001.0 |
| 20260901150005 | 86 | 212 | 1.0 | 2.0 | 0.00 | 0.00 | 0.00 | 71 | 1001.1 |
| 20260901145005 | 84 | 259 | 2.0 | 2.0 | 0.00 | 0.00 | 0.00 | 76 | 1001.2 |
| 20260901144505 | 84 | 259 | 2.0 | 2.0 | 0.00 | 0.00 | 0.00 | 76 | 1001.1 |
| 20260901144005 | 84 | 259 | 2.0 | 2.0 | 0.00 | 0.00 | 0.00 | 76 | 1001.0 |
| 20260901143505 | 84 | 259 | 2.0 | 2.0 | 0.00 | 0.00 | 0.00 | 76 | 1001.1 |
| 20260901143005 | 84 | 259 | 2.0 | 2.0 | 0.00 | 0.00 | 0.00 | 76 | 1001.2 |
| 20260901142505 | 76 | 136 | 0.0 | 1.0 | 0.00 | 0.00 | 0.00 | 91 | 1001.2 |
| 20260901142005 | 76 | 136 | 0.0 | 1.0 | 0.00 | 0.00 | 0.00 | 91 | 1001.1 |
| 20260901141505 | 76 | 136 | 0.0 | 1.0 | 0.00 | 0.00 | 0.00 | 91 | 1001.3 |
| 20260901141004 | 76 | 136 | 0.0 | 1.0 | 0.00 | 0.00 | 0.00 | 91 | 1001.4 |
| 20260901140505 | 76 | 136 | 0.0 | 1.0 | 0.00 | 0.00 | 0.00 | 91 | 1001.3 |
| 20260901140004 | 76 | 136 | 0.0 | 1.0 | 0.00 | 0.00 | 0.00 | 91 | 1001.3 |
| 20260901135504 | 76 | 136 | 0.0 | 1.0 | 0.00 | 0.00 | 0.00 | 91 | 1001.2 |
| 20260901135005 | 76 | 136 | 0.0 | 1.0 | 0.00 | 0.00 | 0.00 | 91 | 1001.3 |
| 20260901134506 | 76 | 136 | 0.0 | 1.0 | 0.00 | 0.00 | 0.00 | 91 | 1001.1 |
| 20260901134004 | 76 | 136 | 0.0 | 1.0 | 0.00 | 0.00 | 0.00 | 91 | 1001.0 |
| 20260901133504 | 76 | 136 | 0.0 | 1.0 | 0.00 | 0.00 | 0.00 | 91 | 1001.1 |
| 20260901133005 | 76 | 136 | 0.0 | 1.0 | 0.00 | 0.00 | 0.00 | 91 | 1001.1 |
| 20260901132505 | 76 | 136 | 0.0 | 1.0 | 0.00 | 0.00 | 0.00 | 91 | 1000.9 |
| 20260901132005 | 76 | 136 | 0.0 | 1.0 | 0.00 | 0.00 | 0.00 | 91 | 1001.1 |
| 20260901131005 | 76 | 136 | 0.0 | 1.0 | 0.00 | 0.00 | 0.00 | 91 | 1000.7 |
| 20260901130505 | 76 | 136 | 0.0 | 1.0 | 0.00 | 0.00 | 0.00 | 91 | 1000.7 |
| 20260901092004 | 78 | 155 | 2.0 | 6.0 | 0.00 | 0.00 | 0.00 | 84 | 999.9 |
| 20260901091504 | 78 | 254 | 3.0 | 5.0 | 0.00 | 0.00 | 0.00 | 84 | 1000.0 |
| 20260901091003 | 78 | 173 | 2.0 | 3.0 | 0.00 | 0.00 | 0.00 | 84 | 1000.1 |
| 20260901090503 | 78 | 201 | 2.0 | 5.0 | 0.00 | 0.00 | 0.00 | 83 | 999.9 |
| 20260901090004 | 79 | 227 | 2.0 | 5.0 | 0.00 | 0.00 | 0.00 | 83 | 999.9 |
| 20260901085504 | 79 | 264 | 3.0 | 5.0 | 0.00 | 0.00 | 0.00 | 83 | 999.9 |
| 20260901084503 | 79 | 144 | 1.0 | 3.0 | 0.00 | 0.00 | 0.00 | 83 | 999.7 |
| 20260901084004 | 79 | 198 | 2.0 | 5.0 | 0.00 | 0.00 | 0.00 | 82 | 999.8 |
| 20260901083504 | 79 | 182 | 3.0 | 5.0 | 0.00 | 0.00 | 0.00 | 82 | 999.7 |
| 20260901083003 | 79 | 160 | 2.0 | 3.0 | 0.00 | 0.00 | 0.00 | 82 | 999.7 |
| 20260901082503 | 80 | 177 | 2.0 | 3.0 | 0.00 | 0.00 | 0.00 | 82 | 999.6 |
| 20260901082004 | 80 | 147 | 2.0 | 3.0 | 0.00 | 0.00 | 0.00 | 81 | 999.7 |
| 20260901081503 | 80 | 163 | 2.0 | 5.0 | 0.00 | 0.00 | 0.00 | 81 | 999.7 |
| 20260901081003 | 80 | 165 | 3.0 | 5.0 | 0.00 | 0.00 | 0.00 | 81 | 999.9 |
| 20260901080503 | 80 | 184 | 2.0 | 5.0 | 0.00 | 0.00 | 0.00 | 80 | 999.8 |
| 20260901080004 | 80 | 168 | 2.0 | 5.0 | 0.00 | 0.00 | 0.00 | 80 | 999.7 |
| 20260901075004 | 80 | 179 | 3.0 | 7.0 | 0.00 | 0.00 | 0.00 | 79 | 999.9 |
| 20260901074503 | 80 | 188 | 5.0 | 6.0 | 0.00 | 0.00 | 0.00 | 79 | 1000.0 |
| 20260901071504 | 81 | 175 | 4.0 | 6.0 | 0.00 | 0.00 | 0.00 | 76 | 1000.0 |
| 20260901071003 | 81 | 183 | 2.0 | 6.0 | 0.00 | 0.00 | 0.00 | 76 | 999.8 |
| 20260901070504 | 81 | 157 | 2.0 | 5.0 | 0.00 | 0.00 | 0.00 | 76 | 999.8 |
| 20260901070003 | 82 | 177 | 3.0 | 6.0 | 0.00 | 0.00 | 0.00 | 75 | 999.9 |
| 20260901065504 | 82 | 205 | 3.0 | 6.0 | 0.00 | 0.00 | 0.00 | 75 | 999.9 |
| 20260901065004 | 82 | 196 | 3.0 | 5.0 | 0.00 | 0.00 | 0.00 | 75 | 1000.0 |
| 20260901064503 | 82 | 210 | 5.0 | 8.0 | 0.00 | 0.00 | 0.00 | 74 | 999.9 |
| 20260901064004 | 82 | 197 | 2.0 | 6.0 | 0.00 | 0.00 | 0.00 | 74 | 999.9 |
| 20260901063004 | 82 | 149 | 5.0 | 8.0 | 0.00 | 0.00 | 0.00 | 74 | 999.7 |
| 20260901062503 | 82 | 163 | 5.0 | 8.0 | 0.00 | 0.00 | 0.00 | 74 | 999.6 |
| 20260901062003 | 82 | 183 | 3.0 | 8.0 | 0.00 | 0.00 | 0.00 | 74 | 999.6 |
| 20260901061504 | 82 | 169 | 3.0 | 5.0 | 0.00 | 0.00 | 0.00 | 74 | 999.4 |
| 20260901061003 | 82 | 213 | 3.0 | 6.0 | 0.00 | 0.00 | 0.00 | 74 | 999.5 |
| 20260901060004 | 83 | 152 | 2.0 | 3.0 | 0.00 | 0.00 | 0.00 | 72 | 999.6 |
| 20260901055504 | 83 | 167 | 2.0 | 5.0 | 0.00 | 0.00 | 0.00 | 71 | 999.4 |
| 20260901055003 | 83 | 176 | 3.0 | 6.0 | 0.00 | 0.00 | 0.00 | 71 | 999.5 |
| 20260901054504 | 83 | 172 | 3.0 | 3.0 | 0.00 | 0.00 | 0.00 | 70 | 999.6 |
| 20260901054004 | 83 | 168 | 3.0 | 3.0 | 0.00 | 0.00 | 0.00 | 69 | 999.4 |
| 20260901053504 | 83 | 164 | 2.0 | 6.0 | 0.00 | 0.00 | 0.00 | 69 | 999.4 |
| 20260901053004 | 83 | 173 | 4.0 | 8.0 | 0.00 | 0.00 | 0.00 | 68 | 999.4 |
| 20260901052503 | 83 | 169 | 5.0 | 9.0 | 0.00 | 0.00 | 0.00 | 67 | 999.6 |
| 20260901052004 | 84 | 173 | 3.0 | 7.0 | 0.00 | 0.00 | 0.00 | 67 | 999.3 |
| 20260901051504 | 84 | 172 | 5.0 | 7.0 | 0.00 | 0.00 | 0.00 | 67 | 999.3 |
| 20260901051005 | 84 | 195 | 3.0 | 5.0 | 0.00 | 0.00 | 0.00 | 67 | 999.3 |
| 20260901050003 | 84 | 171 | 3.0 | 7.0 | 0.00 | 0.00 | 0.00 | 66 | 999.3 |
| 20260901045504 | 84 | 183 | 3.0 | 8.0 | 0.00 | 0.00 | 0.00 | 65 | 999.3 |
| 20260901045004 | 85 | 168 | 5.0 | 9.0 | 0.00 | 0.00 | 0.00 | 65 | 999.3 |
| 20260901044506 | 85 | 203 | 5.0 | 8.0 | 0.00 | 0.00 | 0.00 | 65 | 999.2 |
| 20260901044003 | 85 | 168 | 5.0 | 8.0 | 0.00 | 0.00 | 0.00 | 64 | 999.2 |
| 20260901043503 | 85 | 215 | 5.0 | 7.0 | 0.00 | 0.00 | 0.00 | 64 | 999.1 |
| 20260901043004 | 85 | 209 | 5.0 | 9.0 | 0.00 | 0.00 | 0.00 | 64 | 999.1 |
| 20260901042504 | 85 | 149 | 7.0 | 10.0 | 0.00 | 0.00 | 0.00 | 64 | 998.9 |
| 20260901042004 | 85 | 157 | 6.0 | 10.0 | 0.00 | 0.00 | 0.00 | 63 | 999.2 |
| 20260901041503 | 86 | 154 | 5.0 | 8.0 | 0.00 | 0.00 | 0.00 | 63 | 999.1 |
| 20260901041003 | 86 | 180 | 5.0 | 8.0 | 0.00 | 0.00 | 0.00 | 62 | 999.0 |
| 20260901040004 | 86 | 188 | 2.0 | 7.0 | 0.00 | 0.00 | 0.00 | 62 | 999.1 |
| 20260901035504 | 86 | 191 | 2.0 | 6.0 | 0.00 | 0.00 | 0.00 | 61 | 999.1 |
| 20260901035004 | 86 | 159 | 3.0 | 6.0 | 0.00 | 0.00 | 0.00 | 60 | 999.2 |
| 20260901034503 | 87 | 181 | 3.0 | 7.0 | 0.00 | 0.00 | 0.00 | 59 | 999.1 |
| 20260901034003 | 87 | 178 | 3.0 | 9.0 | 0.00 | 0.00 | 0.00 | 58 | 999.0 |
| 20260901033504 | 87 | 148 | 4.0 | 8.0 | 0.00 | 0.00 | 0.00 | 58 | 998.8 |
| 20260901033004 | 87 | 172 | 6.0 | 7.0 | 0.00 | 0.00 | 0.00 | 56 | 998.9 |
| 20260901032503 | 86 | 157 | 3.0 | 6.0 | 0.00 | 0.00 | 0.00 | 55 | 998.7 |
| 20260901032003 | 86 | 144 | 2.0 | 5.0 | 0.00 | 0.00 | 0.00 | 53 | 998.8 |
| 20260901030504 | 86 | 131 | 2.0 | 2.0 | 0.00 | 0.00 | 0.00 | 51 | 998.6 |
| 20260901030004 | 87 | 146 | 1.0 | 2.0 | 0.00 | 0.00 | 0.00 | 51 | 998.5 |
| 20260901025003 | 87 | 149 | 1.0 | 5.0 | 0.00 | 0.00 | 0.00 | 50 | 998.4 |
| 20260901024004 | 87 | 134 | 1.0 | 3.0 | 0.00 | 0.00 | 0.00 | 50 | 998.4 |
| 20260901023504 | 87 | 126 | 1.0 | 3.0 | 0.00 | 0.00 | 0.00 | 50 | 998.3 |
| 20260901023004 | 87 | 150 | 1.0 | 2.0 | 0.00 | 0.00 | 0.00 | 51 | 998.2 |
| 20260901022504 | 87 | 138 | 1.0 | 2.0 | 0.00 | 0.00 | 0.00 | 51 | 998.1 |
| 20260901022003 | 87 | 148 | 1.0 | 2.0 | 0.00 | 0.00 | 0.00 | 51 | 998.1 |
| 20260901021503 | 88 | 146 | 0.0 | 1.0 | 0.00 | 0.00 | 0.00 | 50 | 998.1 |
| 20260901021004 | 88 | 134 | 1.0 | 1.0 | 0.00 | 0.00 | 0.00 | 49 | 997.9 |
| 20260901020504 | 88 | 128 | 1.0 | 2.0 | 0.00 | 0.00 | 0.00 | 49 | 998.1 |
| 20260901020004 | 89 | 146 | 1.0 | 2.0 | 0.00 | 0.00 | 0.00 | 49 | 997.9 |
| 20260901015504 | 89 | 144 | 2.0 | 2.0 | 0.00 | 0.00 | 0.00 | 48 | 997.8 |
| 20260901015004 | 89 | 113 | 1.0 | 2.0 | 0.00 | 0.00 | 0.00 | 48 | 997.6 |
| 20260901014503 | 89 | 127 | 1.0 | 2.0 | 0.00 | 0.00 | 0.00 | 48 | 997.8 |
| 20260901014004 | 89 | 131 | 2.0 | 2.0 | 0.00 | 0.00 | 0.00 | 47 | 997.8 |
| 20260901013504 | 90 | 130 | 1.0 | 3.0 | 0.00 | 0.00 | 0.00 | 47 | 997.7 |
| 20260901013003 | 90 | 148 | 2.0 | 3.0 | 0.00 | 0.00 | 0.00 | 46 | 997.7 |
| 20260901012503 | 90 | 139 | 1.0 | 3.0 | 0.00 | 0.00 | 0.00 | 46 | 997.6 |
| 20260901012004 | 91 | 104 | 1.0 | 3.0 | 0.00 | 0.00 | 0.00 | 45 | 997.6 |
| 20260901011504 | 91 | 177 | 2.0 | 3.0 | 0.00 | 0.00 | 0.00 | 45 | 997.6 |
| 20260901011004 | 91 | 143 | 2.0 | 2.0 | 0.00 | 0.00 | 0.00 | 45 | 997.3 |
| 20260901010504 | 91 | 161 | 1.0 | 3.0 | 0.00 | 0.00 | 0.00 | 44 | 997.5 |
| 20260901010004 | 92 | 100 | 2.0 | 3.0 | 0.00 | 0.00 | 0.00 | 44 | 997.3 |
| 20260901005503 | 92 | 124 | 2.0 | 3.0 | 0.00 | 0.00 | 0.00 | 43 | 997.4 |
| 20260901005003 | 92 | 49 | 2.0 | 3.0 | 0.00 | 0.00 | 0.00 | 43 | 997.3 |
| 20260901004504 | 93 | 130 | 1.0 | 3.0 | 0.00 | 0.00 | 0.00 | 43 | 997.5 |
| 20260901004004 | 93 | 160 | 2.0 | 5.0 | 0.00 | 0.00 | 0.00 | 43 | 997.3 |
| 20260901003503 | 93 | 183 | 1.0 | 6.0 | 0.00 | 0.00 | 0.00 | 43 | 997.4 |
| 20260901003003 | 93 | 157 | 2.0 | 6.0 | 0.00 | 0.00 | 0.00 | 42 | 997.4 |
| 20260901002503 | 93 | 170 | 2.0 | 3.0 | 0.00 | 0.00 | 0.00 | 43 | 997.5 |
| 20260901002004 | 94 | 92 | 3.0 | 7.0 | 0.00 | 0.00 | 0.00 | 43 | 997.3 |
| 20260901001504 | 94 | 164 | 4.0 | 8.0 | 0.00 | 0.00 | 0.00 | 42 | 997.4 |
| 20260901001003 | 94 | 149 | 2.0 | 6.0 | 0.00 | 0.00 | 0.00 | 42 | 997.3 |
| 20260901000503 | 94 | 66 | 2.0 | 7.0 | 0.00 | 0.00 | 0.00 | 41 | 996.9 |
| 20260831235504 | 95 | 102 | 2.0 | 6.0 | 0.00 | 0.00 | 0.00 | 41 | 997.2 |
| 20260831235004 | 95 | 170 | 3.0 | 5.0 | 0.00 | 0.00 | 0.00 | 40 | 997.3 |
| 20260831233503 | 96 | 121 | 2.0 | 3.0 | 0.00 | 0.00 | 0.00 | 39 | 997.2 |
| 20260831233003 | 97 | 88 | 1.0 | 2.0 | 0.00 | 0.00 | 0.00 | 38 | 997.4 |
| 20260831232503 | 97 | 132 | 2.0 | 6.0 | 0.00 | 0.00 | 0.00 | 39 | 997.5 |
| 20260831232003 | 97 | 161 | 3.0 | 6.0 | 0.00 | 0.00 | 0.00 | 38 | 997.2 |
| 20260831231504 | 96 | 130 | 2.0 | 5.0 | 0.00 | 0.00 | 0.00 | 38 | 997.3 |
| 20260831230503 | 96 | 172 | 3.0 | 8.0 | 0.00 | 0.00 | 0.00 | 40 | 997.4 |
| 20260831230003 | 97 | 112 | 3.0 | 7.0 | 0.00 | 0.00 | 0.00 | 39 | 997.2 |
| 20260831225503 | 98 | 179 | 5.0 | 8.0 | 0.00 | 0.00 | 0.00 | 37 | 997.5 |
| 20260831225003 | 99 | 126 | 1.0 | 3.0 | 0.00 | 0.00 | 0.00 | 37 | 997.4 |
| 20260831224503 | 99 | 80 | 1.0 | 3.0 | 0.00 | 0.00 | 0.00 | 36 | 997.4 |
| 20260831224003 | 98 | 122 | 1.0 | 8.0 | 0.00 | 0.00 | 0.00 | 37 | 997.4 |
| 20260831223003 | 98 | 156 | 3.0 | 5.0 | 0.00 | 0.00 | 0.00 | 37 | 997.3 |
| 20260831222503 | 99 | 50 | 2.0 | 5.0 | 0.00 | 0.00 | 0.00 | 37 | 997.5 |
| 20260831222004 | 98 | 116 | 2.0 | 6.0 | 0.00 | 0.00 | 0.00 | 39 | 997.6 |
| 20260831221504 | 98 | 218 | 4.0 | 6.0 | 0.00 | 0.00 | 0.00 | 40 | 997.7 |
| 20260831221004 | 99 | 189 | 2.0 | 2.0 | 0.00 | 0.00 | 0.00 | 39 | 997.5 |
| 20260831220503 | 99 | 189 | 2.0 | 2.0 | 0.00 | 0.00 | 0.00 | 39 | 997.6 |
| 20260831220004 | 99 | 187 | 3.0 | 7.0 | 0.00 | 0.00 | 0.00 | 39 | 997.7 |
| 20260831215504 | 99 | 209 | 3.0 | 7.0 | 0.00 | 0.00 | 0.00 | 40 | 997.7 |
| 20260831215004 | 98 | 86 | 0.0 | 3.0 | 0.00 | 0.00 | 0.00 | 40 | 997.7 |
| 20260831214504 | 97 | 162 | 2.0 | 6.0 | 0.00 | 0.00 | 0.00 | 41 | 998.1 |
| 20260831213503 | 95 | 166 | 4.0 | 7.0 | 0.00 | 0.00 | 0.00 | 43 | 997.8 |
| 20260831213003 | 98 | 209 | 6.0 | 6.0 | 0.00 | 0.00 | 0.00 | 42 | 998.1 |
| 20260831212503 | 98 | 209 | 5.0 | 6.0 | 0.00 | 0.00 | 0.00 | 42 | 998.1 |
| 20260831212003 | 98 | 209 | 5.0 | 7.0 | 0.00 | 0.00 | 0.00 | 42 | 998.3 |
| 20260831211504 | 97 | 150 | 2.0 | 7.0 | 0.00 | 0.00 | 0.00 | 44 | 998.3 |
| 20260831211004 | 98 | 162 | 5.0 | 7.0 | 0.00 | 0.00 | 0.00 | 43 | 998.3 |
| 20260831210504 | 99 | 85 | 3.0 | 6.0 | 0.00 | 0.00 | 0.00 | 42 | 998.2 |
| 20260831210004 | 98 | 83 | 3.0 | 6.0 | 0.00 | 0.00 | 0.00 | 40 | 998.4 |
| 20260831205504 | 98 | 116 | 2.0 | 5.0 | 0.00 | 0.00 | 0.00 | 42 | 998.4 |
| 20260831204504 | 97 | 112 | 1.0 | 1.0 | 0.00 | 0.00 | 0.00 | 43 | 998.6 |
| 20260831203504 | 96 | 262 | 3.0 | 7.0 | 0.00 | 0.00 | 0.00 | 45 | 998.9 |
| 20260831203004 | 96 | 262 | 3.0 | 7.0 | 0.00 | 0.00 | 0.00 | 45 | 999.0 |
| 20260831202504 | 96 | 262 | 3.0 | 7.0 | 0.00 | 0.00 | 0.00 | 45 | 999.0 |
| 20260831202004 | 96 | 262 | 3.0 | 7.0 | 0.00 | 0.00 | 0.00 | 45 | 999.2 |
| 20260831201504 | 96 | 262 | 3.0 | 7.0 | 0.00 | 0.00 | 0.00 | 45 | 999.4 |
| 20260831201004 | 96 | 134 | 2.0 | 7.0 | 0.00 | 0.00 | 0.00 | 44 | 999.3 |
| 20260831200504 | 97 | 165 | 3.0 | 6.0 | 0.00 | 0.00 | 0.00 | 44 | 999.4 |
| 20260831200004 | 97 | 165 | 3.0 | 6.0 | 0.00 | 0.00 | 0.00 | 44 | 999.4 |
| 20260831195504 | 96 | 153 | 3.0 | 5.0 | 0.00 | 0.00 | 0.00 | 46 | 999.4 |
| 20260831195004 | 98 | 190 | 2.0 | 2.0 | 0.00 | 0.00 | 0.00 | 44 | 999.5 |
| 20260831194504 | 98 | 190 | 2.0 | 6.0 | 0.00 | 0.00 | 0.00 | 44 | 999.5 |
| 20260831194004 | 97 | 194 | 6.0 | 7.0 | 0.00 | 0.00 | 0.00 | 46 | 999.6 |
| 20260831193504 | 96 | 200 | 5.0 | 7.0 | 0.00 | 0.00 | 0.00 | 46 | 999.7 |
| 20260831193004 | 96 | 169 | 3.0 | 5.0 | 0.00 | 0.00 | 0.00 | 45 | 999.5 |
| 20260831192004 | 95 | 161 | 5.0 | 9.0 | 0.00 | 0.00 | 0.00 | 47 | 999.7 |
| 20260831191504 | 95 | 161 | 5.0 | 9.0 | 0.00 | 0.00 | 0.00 | 47 | 999.8 |
| 20260831190504 | 95 | 161 | 5.0 | 9.0 | 0.00 | 0.00 | 0.00 | 47 | 999.9 |